Hourly Data Report for October 19, 2017

All times are specified in Local Standard Time (LST). Add 1 hour to adjust for Daylight Saving Time where and when it is observed.

ST. PETERS
PRINCE EDWARD ISLAND

46°27'01.000" N
62°34'33.000" W
29.70 m
8300562
71310
ZSP

Download Data

Hourly Data (October 2017)
Hourly Data Report for October 19, 2017
Temp Definition
°C
Dew Point Temp Definition
°C
Rel Hum Definition
%
Wind Dir Definition
10's deg

Wind Spd Definition
km/h
Visibility Definition
km
Stn Press Definition
kPa
Hmdx Definition


Wind Chill Definition


Weather Definition


TIME
00:00 8.3 3.1 70 29 10   102.01     LegendNANA
01:00 6.0 2.8 80 22 6   102.04     LegendNANA
02:00 3.5 1.6 87 18 6   102.08     LegendNANA
03:00 4.4 2.9 90 19 5   102.10     LegendNANA
04:00 3.4 2.0 91 17 5   102.12     LegendNANA
05:00 2.9 1.4 89 15 9   102.17     LegendNANA
06:00 2.9 1.6 91 15 10   102.16     LegendNANA
07:00 3.5 2.2 92 17 9   102.12     LegendNANA
08:00 6.9 4.2 83 16 10   102.13     LegendNANA
09:00 10.4 4.8 68 17 11   102.10     LegendNANA
10:00 13.1 3.1 51 19 20   102.07     LegendNANA
11:00 15.4 1.4 39 18 23   101.98     LegendNANA
12:00 17.4 2.8 38 19 20   101.87     LegendNANA
13:00 17.5 1.9 35 18 25   101.74     LegendNANA
14:00 18.8 2.5 34 19 25   101.64     LegendNANA
15:00 18.2 3.8 38 19 29   101.55     LegendNANA
16:00 18.1 5.6 44 18 23   101.46     LegendNANA
17:00 16.3 7.5 56 18 21   101.37     LegendNANA
18:00 14.7 8.2 65 18 22   101.32     LegendNANA
19:00 13.8 8.3 69 17 22   101.21     LegendNANA
20:00 13.5 8.5 72 18 26   101.10     LegendNANA
21:00 13.4 9.6 78 18 32   100.98     LegendNANA
22:00 13.4 9.8 79 18 32   100.87     LegendNANA
23:00 13.5 9.7 78 18 31   100.81     LegendNANA

Notes on Data Quality.

Legend

  • E = Estimated
  • M = Missing
  • NA = Not Available
  • ‡ = Partner data that is not subject to review by the National Climate Archives
Date modified: